CEB313 RCTP-RPLL

Flight info

Callsign CEB313
Flight time 1h 57m
Altitude 38000
Route TINHO1C TINHO Q11 POTIB M646 LAO B462 CAB CAB3R
Aircraft A339/H-SADE1E2E3GHIJ3J5M1P2RWXY/LB2D1

Departure

Time 2026-04-30 11:43
Airport Taiwan Taoyuan International Airport (RCTP)

Arrival

Time 2026-04-30 13:40
Airport Ninoy Aquino International Airport (RPLL)
Time Latitude Longitude Altitude Speed Heading
2026-04-30 11:30 25.08180 121.23381 123 ft 0 kts 142°
2026-04-30 11:30 25.08185 121.23377 123 ft 2 kts 142°
2026-04-30 11:31 25.08196 121.23367 123 ft 2 kts 142°
2026-04-30 11:31 25.08207 121.23357 123 ft 2 kts 142°
2026-04-30 11:31 25.08218 121.23348 123 ft 2 kts 142°
2026-04-30 11:31 25.08230 121.23338 123 ft 2 kts 142°
2026-04-30 11:32 25.08243 121.23327 123 ft 2 kts 147°
2026-04-30 11:32 25.08257 121.23320 123 ft 2 kts 169°
2026-04-30 11:32 25.08271 121.23319 123 ft 2 kts 185°
2026-04-30 11:33 25.08298 121.23330 123 ft 2 kts 220°
2026-04-30 11:33 25.08305 121.23337 123 ft 1 kts 230°
2026-04-30 11:33 25.08307 121.23339 123 ft 0 kts 229°
2026-04-30 11:33 25.08306 121.23339 123 ft 0 kts 229°
2026-04-30 11:36 25.08299 121.23331 123 ft 2 kts 222°
2026-04-30 11:36 25.08276 121.23314 123 ft 5 kts 213°
2026-04-30 11:37 25.08240 121.23283 123 ft 7 kts 225°
2026-04-30 11:37 25.08201 121.23236 123 ft 9 kts 228°
2026-04-30 11:37 25.08171 121.23177 123 ft 9 kts 266°
2026-04-30 11:37 25.08199 121.23115 123 ft 8 kts 289°
2026-04-30 11:38 25.08185 121.23048 123 ft 10 kts 236°
2026-04-30 11:38 25.08136 121.22985 123 ft 11 kts 228°
2026-04-30 11:38 25.08080 121.22915 123 ft 12 kts 229°
2026-04-30 11:38 25.08019 121.22838 123 ft 13 kts 229°
2026-04-30 11:39 25.07953 121.22753 123 ft 14 kts 229°
2026-04-30 11:39 25.07884 121.22664 123 ft 15 kts 229°
2026-04-30 11:39 25.07810 121.22570 123 ft 16 kts 229°
2026-04-30 11:39 25.07734 121.22473 123 ft 17 kts 229°
2026-04-30 11:40 25.07654 121.22375 123 ft 17 kts 228°
2026-04-30 11:40 25.07573 121.22270 123 ft 18 kts 230°
2026-04-30 11:40 25.07490 121.22164 123 ft 18 kts 229°
2026-04-30 11:40 25.07405 121.22058 123 ft 18 kts 229°
2026-04-30 11:41 25.07319 121.21948 123 ft 18 kts 229°
2026-04-30 11:41 25.07238 121.21847 123 ft 14 kts 229°
2026-04-30 11:41 25.07185 121.21779 123 ft 9 kts 236°
2026-04-30 11:41 25.07188 121.21709 123 ft 10 kts 303°
2026-04-30 11:42 25.07242 121.21651 123 ft 11 kts 321°
2026-04-30 11:42 25.07293 121.21624 123 ft 6 kts
2026-04-30 11:42 25.07330 121.21653 123 ft 0 kts 47°
2026-04-30 11:42 25.07338 121.21662 123 ft 9 kts 47°
2026-04-30 11:43 25.07542 121.21919 123 ft 78 kts 49°
2026-04-30 11:43 25.08031 121.22541 123 ft 135 kts 49°
2026-04-30 11:43 25.08737 121.23435 321 ft 164 kts 48°
2026-04-30 11:43 25.09471 121.24372 1024 ft 158 kts 48°
2026-04-30 11:44 25.10183 121.25275 1762 ft 152 kts 49°
2026-04-30 11:44 25.10882 121.26180 2248 ft 162 kts 49°
2026-04-30 11:44 25.11670 121.27189 2657 ft 179 kts 48°
2026-04-30 11:44 25.12528 121.28268 3067 ft 196 kts 47°
2026-04-30 11:45 25.13472 121.29470 3502 ft 214 kts 48°
2026-04-30 11:45 25.14469 121.30771 4115 ft 225 kts 47°
2026-04-30 11:45 25.15476 121.32086 4912 ft 226 kts 47°
2026-04-30 11:45 25.16503 121.33410 5627 ft 230 kts 47°
2026-04-30 11:46 25.17591 121.34809 6293 ft 235 kts 48°
2026-04-30 11:46 25.18646 121.36191 6902 ft 240 kts 48°
2026-04-30 11:46 25.19730 121.37607 7495 ft 245 kts 48°
2026-04-30 11:46 25.20841 121.39049 8137 ft 249 kts 49°
2026-04-30 11:47 25.21972 121.40521 8843 ft 251 kts 49°
2026-04-30 11:47 25.23101 121.41994 9491 ft 255 kts 50°
2026-04-30 11:47 25.24248 121.43484 10115 ft 258 kts 50°
2026-04-30 11:47 25.25410 121.44991 10792 ft 260 kts 50°
2026-04-30 11:48 25.26583 121.46526 11440 ft 262 kts 50°
2026-04-30 11:48 25.27691 121.48129 12077 ft 265 kts 64°
2026-04-30 11:48 25.28139 121.50085 12616 ft 268 kts 92°
2026-04-30 11:48 25.27713 121.52081 13041 ft 273 kts 117°
2026-04-30 11:49 25.26520 121.53709 13372 ft 275 kts 152°
2026-04-30 11:49 25.24840 121.54688 13772 ft 279 kts 161°
2026-04-30 11:49 25.23035 121.55622 14117 ft 290 kts 162°
2026-04-30 11:49 25.21166 121.56583 14369 ft 304 kts 161°
2026-04-30 11:50 25.19208 121.57602 14633 ft 320 kts 161°
2026-04-30 11:50 25.17147 121.58695 14894 ft 335 kts 160°
2026-04-30 11:50 25.14995 121.59849 15156 ft 351 kts 160°
2026-04-30 11:50 25.12743 121.61062 15420 ft 366 kts 159°
2026-04-30 11:51 25.10446 121.62306 15832 ft 374 kts 159°
2026-04-30 11:51 25.08085 121.63590 16391 ft 378 kts 159°
2026-04-30 11:51 25.05700 121.64886 16958 ft 381 kts 159°
2026-04-30 11:51 25.03319 121.66179 17435 ft 385 kts 159°
2026-04-30 11:52 25.00893 121.67494 17919 ft 390 kts 159°
2026-04-30 11:52 24.98444 121.68823 18449 ft 393 kts 159°
2026-04-30 11:52 24.95989 121.70155 19000 ft 396 kts 159°
2026-04-30 11:52 24.93525 121.71488 19514 ft 399 kts 159°
2026-04-30 11:53 24.90999 121.72855 20027 ft 403 kts 159°
2026-04-30 11:53 24.88463 121.74226 20566 ft 403 kts 159°
2026-04-30 11:53 24.85949 121.75584 21032 ft 406 kts 159°
2026-04-30 11:53 24.83376 121.76975 21487 ft 411 kts 159°
2026-04-30 11:54 24.80809 121.78361 21957 ft 414 kts 159°
2026-04-30 11:54 24.78224 121.79758 22421 ft 417 kts 159°
2026-04-30 11:54 24.75608 121.81168 22910 ft 420 kts 159°
2026-04-30 11:54 24.72986 121.82584 23407 ft 422 kts 159°
2026-04-30 11:55 24.70300 121.84032 23903 ft 425 kts 159°
2026-04-30 11:55 24.67650 121.85459 24385 ft 427 kts 159°
2026-04-30 11:55 24.64973 121.86900 24880 ft 430 kts 159°
2026-04-30 11:55 24.62265 121.88356 25381 ft 431 kts 159°
2026-04-30 11:56 24.59560 121.89812 25859 ft 433 kts 159°
2026-04-30 11:56 24.56850 121.91269 26311 ft 435 kts 159°
2026-04-30 11:56 24.54118 121.92738 26743 ft 438 kts 159°
2026-04-30 11:56 24.51379 121.94210 27186 ft 439 kts 159°
2026-04-30 11:57 24.48652 121.95673 27595 ft 442 kts 159°
2026-04-30 11:57 24.45866 121.97169 28043 ft 443 kts 159°
2026-04-30 11:57 24.43079 121.98663 28478 ft 445 kts 159°
2026-04-30 11:57 24.40281 122.00156 28895 ft 447 kts 160°
2026-04-30 11:58 24.37380 122.01273 29288 ft 440 kts 172°
2026-04-30 11:58 24.34349 122.01716 29566 ft 438 kts 184°
2026-04-30 11:58 24.31342 122.01495 29821 ft 435 kts 194°
2026-04-30 11:58 24.28427 122.00693 30175 ft 433 kts 201°
2026-04-30 11:59 24.25530 121.99742 30562 ft 434 kts 201°
2026-04-30 11:59 24.22617 121.98772 30893 ft 436 kts 201°
2026-04-30 11:59 24.19686 121.97798 31241 ft 438 kts 201°
2026-04-30 11:59 24.16780 121.96840 31564 ft 441 kts 201°
2026-04-30 12:00 24.13833 121.95873 31902 ft 443 kts 201°
2026-04-30 12:00 24.10869 121.94905 32242 ft 444 kts 201°
2026-04-30 12:00 24.07882 121.93929 32607 ft 445 kts 201°
2026-04-30 12:00 24.04940 121.92971 33065 ft 444 kts 201°
2026-04-30 12:01 24.01985 121.92010 33625 ft 441 kts 201°
2026-04-30 12:01 23.99041 121.91053 34217 ft 437 kts 201°
2026-04-30 12:01 23.96146 121.90112 34740 ft 434 kts 201°
2026-04-30 12:01 23.93255 121.89172 35217 ft 432 kts 201°
2026-04-30 12:02 23.90383 121.88238 35654 ft 431 kts 201°
2026-04-30 12:02 23.87474 121.87295 36080 ft 430 kts 201°
2026-04-30 12:02 23.84627 121.86370 36488 ft 428 kts 201°
2026-04-30 12:02 23.81740 121.85435 36790 ft 429 kts 201°
2026-04-30 12:03 23.78873 121.84503 37002 ft 431 kts 201°
2026-04-30 12:03 23.73108 121.82637 37520 ft 433 kts 201°
2026-04-30 12:03 23.70213 121.81698 37795 ft 434 kts 201°
2026-04-30 12:04 23.67308 121.80757 38031 ft 435 kts 201°
2026-04-30 12:04 23.61486 121.78873 38061 ft 437 kts 201°
2026-04-30 12:05 23.55644 121.76985 38068 ft 438 kts 201°
2026-04-30 12:05 23.49799 121.75092 38064 ft 438 kts 201°
2026-04-30 12:06 23.43935 121.73193 38065 ft 439 kts 201°
2026-04-30 12:06 23.38064 121.71296 38063 ft 439 kts 201°
2026-04-30 12:07 23.32186 121.69402 38061 ft 440 kts 201°
2026-04-30 12:07 23.26298 121.67506 38054 ft 441 kts 201°
2026-04-30 12:08 23.20408 121.65612 38054 ft 442 kts 201°
2026-04-30 12:08 23.14496 121.63711 38058 ft 442 kts 201°
2026-04-30 12:09 23.08586 121.61813 38055 ft 443 kts 201°
2026-04-30 12:09 23.02659 121.59911 38062 ft 444 kts 201°
2026-04-30 12:10 22.96733 121.58012 38056 ft 444 kts 201°
2026-04-30 12:10 22.90849 121.56133 38057 ft 442 kts 201°
2026-04-30 12:11 22.84929 121.54242 38058 ft 442 kts 201°
2026-04-30 12:11 22.79030 121.52359 38054 ft 442 kts 201°
2026-04-30 12:12 22.73143 121.50480 38047 ft 442 kts 201°
2026-04-30 12:12 22.67234 121.48508 38051 ft 441 kts 204°
2026-04-30 12:13 22.61527 121.46088 38051 ft 439 kts 206°
2026-04-30 12:13 22.55876 121.43604 38057 ft 440 kts 206°
2026-04-30 12:14 22.50186 121.41104 38046 ft 440 kts 206°
2026-04-30 12:14 22.44510 121.38610 38049 ft 439 kts 206°
2026-04-30 12:15 22.38845 121.36123 38050 ft 439 kts 206°
2026-04-30 12:15 22.33192 121.33646 38048 ft 439 kts 206°
2026-04-30 12:16 22.27531 121.31167 38051 ft 439 kts 206°
2026-04-30 12:16 22.21868 121.28687 38040 ft 439 kts 206°
2026-04-30 12:17 22.13337 121.24955 38044 ft 440 kts 206°
2026-04-30 12:17 22.07651 121.22471 38036 ft 440 kts 206°
2026-04-30 12:18 22.01979 121.19993 38037 ft 441 kts 206°
2026-04-30 12:18 21.96289 121.17509 38034 ft 441 kts 206°
2026-04-30 12:19 21.90577 121.15023 38030 ft 441 kts 206°
2026-04-30 12:19 21.84916 121.12561 38028 ft 440 kts 206°
2026-04-30 12:20 21.79234 121.10091 38030 ft 440 kts 206°
2026-04-30 12:20 21.73525 121.07611 38024 ft 440 kts 206°
2026-04-30 12:21 21.67863 121.05153 38017 ft 440 kts 206°
2026-04-30 12:21 21.62169 121.02681 38018 ft 440 kts 206°
2026-04-30 12:22 21.56508 121.00226 38016 ft 440 kts 206°
2026-04-30 12:22 21.50800 120.97753 38015 ft 440 kts 206°
2026-04-30 12:23 21.45139 120.95303 38016 ft 439 kts 206°
2026-04-30 12:23 21.39485 120.92857 38013 ft 439 kts 206°
2026-04-30 12:24 21.33818 120.90409 38003 ft 439 kts 206°
2026-04-30 12:24 21.28143 120.87960 38006 ft 438 kts 206°
2026-04-30 12:25 21.22497 120.85525 38005 ft 438 kts 206°
2026-04-30 12:25 21.16852 120.83089 37998 ft 438 kts 206°
2026-04-30 12:26 21.11189 120.80649 37998 ft 438 kts 206°
2026-04-30 12:26 21.05488 120.78310 37997 ft 440 kts 202°
2026-04-30 12:27 20.99581 120.76521 37997 ft 442 kts 197°
2026-04-30 12:27 20.93464 120.75369 37997 ft 445 kts 192°
2026-04-30 12:28 20.87254 120.74779 37999 ft 447 kts 189°
2026-04-30 12:28 20.81092 120.74269 37997 ft 446 kts 189°
2026-04-30 12:29 20.74876 120.73757 37995 ft 446 kts 189°
2026-04-30 12:29 20.68653 120.73244 37995 ft 446 kts 189°
2026-04-30 12:30 20.62486 120.72736 37992 ft 445 kts 189°
2026-04-30 12:30 20.56282 120.72226 37993 ft 445 kts 189°
2026-04-30 12:31 20.50133 120.71724 37989 ft 445 kts 189°
2026-04-30 12:31 20.43948 120.71217 37988 ft 445 kts 189°
2026-04-30 12:32 20.37768 120.70710 37987 ft 445 kts 189°
2026-04-30 12:32 20.31590 120.70201 37987 ft 444 kts 189°
2026-04-30 12:33 20.25437 120.69696 37985 ft 444 kts 189°
2026-04-30 12:33 20.19275 120.69192 37984 ft 443 kts 189°
2026-04-30 12:34 20.13122 120.68688 37981 ft 442 kts 189°
2026-04-30 12:34 20.06953 120.68182 37981 ft 442 kts 189°
2026-04-30 12:35 20.00809 120.67681 37979 ft 442 kts 189°
2026-04-30 12:35 19.94677 120.67179 37979 ft 442 kts 189°
2026-04-30 12:36 19.88542 120.66679 37980 ft 443 kts 189°
2026-04-30 12:36 19.82390 120.66178 37979 ft 444 kts 189°
2026-04-30 12:37 19.76208 120.65676 37979 ft 444 kts 189°
2026-04-30 12:37 19.70033 120.65174 37979 ft 444 kts 189°
2026-04-30 12:38 19.63856 120.64671 37979 ft 444 kts 189°
2026-04-30 12:38 19.57707 120.64171 37979 ft 444 kts 189°
2026-04-30 12:39 19.51510 120.63667 37979 ft 445 kts 189°
2026-04-30 12:39 19.45351 120.63168 37978 ft 445 kts 189°
2026-04-30 12:40 19.39157 120.62665 37976 ft 445 kts 189°
2026-04-30 12:40 19.32994 120.62167 37973 ft 445 kts 189°
2026-04-30 12:41 19.26796 120.61664 37974 ft 445 kts 189°
2026-04-30 12:41 19.20601 120.61163 37970 ft 445 kts 188°
2026-04-30 12:42 19.14434 120.60664 37964 ft 446 kts 189°
2026-04-30 12:42 19.08234 120.60162 37960 ft 446 kts 188°
2026-04-30 12:43 19.02012 120.59662 37959 ft 447 kts 188°
2026-04-30 12:43 18.95804 120.59161 37959 ft 447 kts 188°
2026-04-30 12:44 18.89637 120.58664 37959 ft 446 kts 188°
2026-04-30 12:44 18.83394 120.58162 37960 ft 446 kts 188°
2026-04-30 12:45 18.77213 120.57664 37964 ft 446 kts 188°
2026-04-30 12:45 18.71000 120.57163 37969 ft 446 kts 188°
2026-04-30 12:46 18.64792 120.56666 37974 ft 446 kts 188°
2026-04-30 12:46 18.58592 120.56168 37978 ft 446 kts 188°
2026-04-30 12:47 18.52416 120.55673 37982 ft 446 kts 188°
2026-04-30 12:47 18.46232 120.55177 37984 ft 446 kts 188°
2026-04-30 12:48 18.40007 120.54677 37986 ft 445 kts 188°
2026-04-30 12:48 18.33833 120.54182 37983 ft 444 kts 188°
2026-04-30 12:49 18.27670 120.53689 37986 ft 445 kts 188°
2026-04-30 12:49 18.21451 120.53339 37984 ft 447 kts 185°
2026-04-30 12:50 18.15202 120.53616 37985 ft 451 kts 179°
2026-04-30 12:50 18.08928 120.54564 37992 ft 454 kts 174°
2026-04-30 12:51 18.02688 120.55727 37990 ft 454 kts 174°
2026-04-30 12:51 17.96448 120.56887 37997 ft 453 kts 174°
2026-04-30 12:52 17.90221 120.58035 38000 ft 453 kts 174°
2026-04-30 12:52 17.83976 120.59189 38012 ft 453 kts 174°
2026-04-30 12:53 17.77710 120.60349 38021 ft 453 kts 174°
2026-04-30 12:53 17.71494 120.61495 38025 ft 453 kts 174°
2026-04-30 12:54 17.65237 120.62649 38026 ft 454 kts 174°
2026-04-30 12:54 17.58983 120.63801 38034 ft 455 kts 174°
2026-04-30 12:55 17.52683 120.64963 38045 ft 455 kts 174°
2026-04-30 12:55 17.46445 120.66114 38051 ft 455 kts 174°
2026-04-30 12:56 17.40151 120.67275 38066 ft 455 kts 174°
2026-04-30 12:56 17.33910 120.68423 38074 ft 455 kts 174°
2026-04-30 12:57 17.27625 120.69582 38091 ft 455 kts 174°
2026-04-30 12:57 17.21394 120.70732 38111 ft 455 kts 173°
2026-04-30 12:58 17.15132 120.71888 38104 ft 456 kts 173°
2026-04-30 12:58 17.08873 120.73042 38125 ft 457 kts 173°
2026-04-30 12:59 17.02589 120.74201 38139 ft 457 kts 173°
2026-04-30 12:59 16.96333 120.75354 37838 ft 452 kts 173°
2026-04-30 13:00 16.93216 120.75929 37274 ft 450 kts 173°
2026-04-30 13:00 16.90168 120.76490 36687 ft 449 kts 173°
2026-04-30 13:00 16.87038 120.77066 36049 ft 448 kts 173°
2026-04-30 13:00 16.83940 120.77635 35348 ft 448 kts 173°
2026-04-30 13:01 16.80863 120.78201 34603 ft 449 kts 173°
2026-04-30 13:01 16.77805 120.78764 33819 ft 452 kts 173°
2026-04-30 13:01 16.74663 120.79340 32986 ft 453 kts 173°
2026-04-30 13:01 16.71557 120.79910 32195 ft 456 kts 173°
2026-04-30 13:02 16.68450 120.80482 31625 ft 454 kts 173°
2026-04-30 13:02 16.65353 120.81052 31154 ft 450 kts 173°
2026-04-30 13:02 16.62264 120.81621 30663 ft 447 kts 173°
2026-04-30 13:02 16.59203 120.82185 30134 ft 444 kts 173°
2026-04-30 13:03 16.56151 120.82744 29598 ft 442 kts 173°
2026-04-30 13:03 16.53115 120.83298 29082 ft 440 kts 173°
2026-04-30 13:03 16.50097 120.83851 28580 ft 438 kts 173°
2026-04-30 13:03 16.47085 120.84400 28083 ft 436 kts 172°
2026-04-30 13:04 16.44096 120.84946 27603 ft 433 kts 172°
2026-04-30 13:04 16.41144 120.85487 27142 ft 430 kts 172°
2026-04-30 13:04 16.38202 120.86025 26685 ft 427 kts 172°
2026-04-30 13:04 16.35280 120.86560 26233 ft 424 kts 172°
2026-04-30 13:05 16.32399 120.87087 25772 ft 421 kts 172°
2026-04-30 13:05 16.29509 120.87617 25314 ft 418 kts 172°
2026-04-30 13:05 16.26630 120.88144 24861 ft 415 kts 172°
2026-04-30 13:06 16.20938 120.89185 23965 ft 410 kts 171°
2026-04-30 13:06 16.18123 120.89699 23510 ft 406 kts 171°
2026-04-30 13:06 16.15343 120.90208 23111 ft 403 kts 171°
2026-04-30 13:06 16.12580 120.90713 22851 ft 402 kts 171°
2026-04-30 13:07 16.09832 120.91214 22608 ft 402 kts 171°
2026-04-30 13:07 16.07057 120.91721 22366 ft 401 kts 171°
2026-04-30 13:07 16.04312 120.92222 22127 ft 400 kts 171°
2026-04-30 13:07 16.01567 120.92722 21895 ft 399 kts 171°
2026-04-30 13:08 15.98802 120.93225 21658 ft 398 kts 171°
2026-04-30 13:08 15.96073 120.93722 21426 ft 397 kts 171°
2026-04-30 13:08 15.93359 120.94218 21196 ft 396 kts 171°
2026-04-30 13:08 15.90624 120.94716 20960 ft 394 kts 170°
2026-04-30 13:09 15.87947 120.95203 20715 ft 393 kts 170°
2026-04-30 13:09 15.85252 120.95695 20460 ft 392 kts 170°
2026-04-30 13:09 15.82568 120.96184 20203 ft 390 kts 170°
2026-04-30 13:09 15.79883 120.96672 19948 ft 389 kts 170°
2026-04-30 13:10 15.77187 120.97163 19686 ft 388 kts 170°
2026-04-30 13:10 15.74570 120.97639 19429 ft 386 kts 170°
2026-04-30 13:10 15.71895 120.98126 19172 ft 384 kts 170°
2026-04-30 13:10 15.69398 120.98579 18931 ft 383 kts 169°
2026-04-30 13:11 15.66750 120.99061 18673 ft 382 kts 169°
2026-04-30 13:11 15.64132 120.99537 18413 ft 380 kts 169°
2026-04-30 13:11 15.61539 121.00008 18156 ft 379 kts 169°
2026-04-30 13:11 15.58895 121.00489 17899 ft 378 kts 169°
2026-04-30 13:12 15.56329 121.00955 17647 ft 372 kts 169°
2026-04-30 13:12 15.53807 121.01413 17413 ft 364 kts 169°
2026-04-30 13:12 15.51313 121.01866 17171 ft 358 kts 169°
2026-04-30 13:13 15.46437 121.01755 16760 ft 346 kts 195°
2026-04-30 13:13 15.44184 121.00930 16605 ft 339 kts 200°
2026-04-30 13:13 15.39838 120.99253 16268 ft 325 kts 191°
2026-04-30 13:14 15.37598 120.99085 16034 ft 321 kts 176°
2026-04-30 13:14 15.35375 120.99226 15699 ft 321 kts 174°
2026-04-30 13:14 15.30876 120.99541 15028 ft 320 kts 175°
2026-04-30 13:15 15.28660 120.99659 14718 ft 319 kts 176°
2026-04-30 13:15 15.24235 120.99844 14089 ft 316 kts 176°
2026-04-30 13:15 15.22015 120.99923 13789 ft 315 kts 176°
2026-04-30 13:16 15.19811 120.99998 13484 ft 314 kts 176°
2026-04-30 13:16 15.17624 121.00069 13170 ft 313 kts 176°
2026-04-30 13:16 15.15469 121.00138 12864 ft 312 kts 177°
2026-04-30 13:17 15.11109 121.00273 12292 ft 309 kts 176°
2026-04-30 13:17 15.08958 121.00339 12009 ft 308 kts 176°
2026-04-30 13:17 15.04666 121.00475 11429 ft 305 kts 176°
2026-04-30 13:18 15.02573 121.00545 11162 ft 303 kts 176°
2026-04-30 13:18 14.98370 121.00675 10595 ft 300 kts 176°
2026-04-30 13:18 14.96277 121.00716 10311 ft 300 kts 180°
2026-04-30 13:19 14.94240 121.00220 10009 ft 305 kts 205°
2026-04-30 13:19 14.92414 120.99086 9733 ft 304 kts 208°
2026-04-30 13:19 14.90608 120.97993 9455 ft 304 kts 207°
2026-04-30 13:19 14.88784 120.96912 9188 ft 302 kts 207°
2026-04-30 13:20 14.86943 120.95834 8911 ft 302 kts 207°
2026-04-30 13:20 14.85097 120.94758 8628 ft 301 kts 207°
2026-04-30 13:20 14.83525 120.93849 8490 ft 300 kts 207°
2026-04-30 13:20 14.81645 120.92784 8377 ft 295 kts 207°
2026-04-30 13:21 14.79833 120.91782 8303 ft 289 kts 207°
2026-04-30 13:21 14.78348 120.90977 8238 ft 284 kts 207°
2026-04-30 13:21 14.76613 120.90054 8106 ft 279 kts 207°
2026-04-30 13:22 14.73120 120.88210 8057 ft 280 kts 207°
2026-04-30 13:22 14.71379 120.87292 8056 ft 280 kts 207°
2026-04-30 13:22 14.68123 120.85129 8055 ft 280 kts 225°
2026-04-30 13:23 14.66751 120.83662 8056 ft 280 kts 227°
2026-04-30 13:23 14.64067 120.80700 8056 ft 280 kts 227°
2026-04-30 13:24 14.61510 120.77854 8049 ft 259 kts 227°
2026-04-30 13:24 14.59057 120.75126 8056 ft 258 kts 227°
2026-04-30 13:25 14.56619 120.72411 8052 ft 258 kts 227°
2026-04-30 13:25 14.54167 120.69679 8024 ft 256 kts 227°
2026-04-30 13:26 14.50528 120.65626 7287 ft 254 kts 227°
2026-04-30 13:26 14.48140 120.62968 7063 ft 253 kts 227°
2026-04-30 13:27 14.45741 120.60294 7059 ft 254 kts 227°
2026-04-30 13:28 14.42228 120.56372 7053 ft 232 kts 227°
2026-04-30 13:28 14.40039 120.53926 7061 ft 232 kts 227°
2026-04-30 13:28 14.38947 120.52702 7062 ft 232 kts 227°
2026-04-30 13:29 14.36776 120.50267 6725 ft 231 kts 227°
2026-04-30 13:29 14.34539 120.47872 6146 ft 231 kts 211°
2026-04-30 13:30 14.30286 120.48770 5261 ft 228 kts 117°
2026-04-30 13:31 14.30117 120.51910 5028 ft 224 kts 79°
2026-04-30 13:31 14.30937 120.56704 5020 ft 226 kts 81°
2026-04-30 13:32 14.31449 120.59907 5014 ft 226 kts 80°
2026-04-30 13:32 14.31966 120.63099 5019 ft 226 kts 80°
2026-04-30 13:33 14.32488 120.66304 5016 ft 226 kts 80°
2026-04-30 13:33 14.33083 120.69498 5012 ft 226 kts 72°
2026-04-30 13:34 14.33657 120.70986 5006 ft 226 kts 64°
2026-04-30 13:34 14.36022 120.75231 5009 ft 226 kts 61°
2026-04-30 13:35 14.36818 120.76639 4880 ft 228 kts 61°
2026-04-30 13:35 14.38414 120.79510 4308 ft 231 kts 60°
2026-04-30 13:36 14.40025 120.82391 3732 ft 232 kts 62°
2026-04-30 13:36 14.40823 120.83842 3434 ft 228 kts 62°
2026-04-30 13:36 14.42324 120.86581 2866 ft 212 kts 61°
2026-04-30 13:37 14.43053 120.87891 2587 ft 205 kts 61°
2026-04-30 13:37 14.44407 120.90321 2106 ft 186 kts 61°
2026-04-30 13:38 14.45655 120.92570 1697 ft 171 kts 61°
2026-04-30 13:38 14.46234 120.93617 1489 ft 163 kts 60°
2026-04-30 13:38 14.47257 120.95458 1083 ft 151 kts 60°
2026-04-30 13:39 14.48294 120.97327 697 ft 141 kts 61°
2026-04-30 13:39 14.49263 120.99072 346 ft 141 kts 62°
2026-04-30 13:40 14.49752 120.99947 172 ft 141 kts 62°
2026-04-30 13:40 14.50232 121.00799 91 ft 124 kts 62°
2026-04-30 13:40 14.50561 121.01413 90 ft 71 kts 60°
2026-04-30 13:40 14.50730 121.01717 90 ft 38 kts 60°
2026-04-30 13:41 14.50863 121.01956 90 ft 37 kts 60°
2026-04-30 13:41 14.50970 121.02137 90 ft 23 kts 52°
2026-04-30 13:41 14.51056 121.02226 90 ft 16 kts 43°
2026-04-30 13:41 14.51140 121.02296 90 ft 13 kts 22°
2026-04-30 13:42 14.51184 121.02262 90 ft 10 kts 263°
2026-04-30 13:42 14.51154 121.02193 90 ft 11 kts 240°
2026-04-30 13:42 14.51089 121.02074 90 ft 0 kts 240°
2026-04-30 13:44 14.51086 121.02069 90 ft 2 kts 240°
2026-04-30 13:44 14.51075 121.02049 90 ft 4 kts 240°
2026-04-30 13:44 14.51066 121.02015 90 ft 5 kts 272°
2026-04-30 13:45 14.51130 121.01926 90 ft 9 kts 314°
2026-04-30 13:45 14.51183 121.01872 90 ft 11 kts 315°
2026-04-30 13:45 14.51240 121.01813 90 ft 12 kts 315°
2026-04-30 13:46 14.51307 121.01744 90 ft 13 kts 315°
2026-04-30 13:46 14.51369 121.01681 90 ft 12 kts 314°
2026-04-30 13:46 14.51426 121.01622 90 ft 12 kts 314°
2026-04-30 13:46 14.51486 121.01559 90 ft 12 kts 314°
2026-04-30 13:47 14.51544 121.01498 90 ft 11 kts 315°
2026-04-30 13:47 14.51597 121.01444 90 ft 11 kts 315°
2026-04-30 13:47 14.51653 121.01386 90 ft 11 kts 315°
2026-04-30 13:47 14.51710 121.01328 90 ft 11 kts 314°
2026-04-30 13:48 14.51755 121.01280 90 ft 11 kts 315°
2026-04-30 13:48 14.51802 121.01231 90 ft 11 kts 315°
2026-04-30 13:48 14.51855 121.01177 90 ft 10 kts 314°
2026-04-30 13:48 14.51901 121.01131 90 ft 4 kts 323°
2026-04-30 13:49 14.51932 121.01128 90 ft 5 kts 17°
2026-04-30 13:49 14.51963 121.01152 90 ft 5 kts 42°
2026-04-30 13:49 14.51978 121.01166 90 ft 0 kts 43°
2026-04-30 13:49 14.51981 121.01169 90 ft 1 kts 43°
2026-04-30 13:50 14.51983 121.01170 90 ft 0 kts 44°